Location: �perlecques
(50.8057°N, 2.1521°E)
Time: 16:19:23
(UTC+00:00)

STARS - Pass Details

Date: 06 April 2023
Orbit: 616 x 630 km, 98.1° (Epoch: 03 June)

Event Time Altitude Azimuth Distance (km) Brightness Sun altitude
Rises 22:12:25 0° 25° (NNE) 2,921 ? -28.5°
Reaches altitude 10° 22:15:04 10° 41° (NE) 2,011 ? -28.7°
Enters shadow 22:15:40 13° 47° (NE) 1,835 ? -28.8°
